This demonstration page uses our WeatherBlox Daily Observations layout. Learn more.

Left ArrowRight Arrow

39.08367, -84.50855

Hourly Observations for March 3, 2019

Temp ( °F °C ) Dew Point ( °F °C ) Humidity (%) Winds ( mph kmh ) Pressure ( in mb ) Visibility ( mi km ) Precip ( " mm )
12:04 am 00:04 Cloudy with Light Rain 35 1.7 33 0.6 93 93 NNE 3 6 30.21 1023 4 6 N/A
12:27 am 00:27 Cloudy with Light Rain 35 1.7 33 0.6 93 93 NE 6 9 30.20 1023 4 6 N/A
12:53 am 00:53 Cloudy with Light Rain 35 1.7 32 undefined 89 89 NNE 8 13 30.17 1022 4 6 N/A
1:11 am 01:11 Cloudy with Mist and Fog 35 1.7 32 undefined 89 89 NNE 8 13 30.18 1022 4 6 0.01 0.25
1:21 am 01:21 Cloudy with Mist and Fog 35 1.7 32 undefined 89 89 NNE 7 11 30.18 1022 4 6 0.01 0.25
1:53 am 01:53 Cloudy with Mist and Fog 35 1.7 33 0.6 93 93 NNE 5 7 30.17 1022 4 6 0.01 0.25
2:03 am 02:03 Cloudy with Mist and Fog 35 1.7 33 0.6 93 93 NNE 8 13 30.18 1022 4 6 N/A
2:19 am 02:19 Cloudy with Mist and Fog 35 1.7 32 undefined 89 89 NNE 7 11 30.18 1022 5 8 N/A
2:51 am 02:51 Cloudy with Mist and Fog 36 2 32 undefined 87 87 NNE 5 7 30.18 1022 5 8 N/A
2:53 am 02:53 Cloudy with Mist and Fog 35 1.7 32 undefined 89 89 NNE 5 7 30.16 1022 5 8 N/A
3:09 am 03:09 Cloudy with Mist and Fog 35 1.7 32 undefined 89 89 NNE 6 9 30.18 1022 5 8 N/A
3:53 am 03:53 Cloudy with Light Rain 35 1.7 31 -0.6 85 85 NNE 7 11 30.15 1021 4 6 N/A
4:10 am 04:10 Cloudy with Light Rain 35 1.7 31 -0.6 85 85 NNE 8 13 30.16 1021 4 6 N/A
4:40 am 04:40 Cloudy with Mist and Fog 34 1.1 30 -1.1 85 85 NE 10 17 30.17 1022 5 8 N/A
4:53 am 04:53 Cloudy with Haze 34 1.1 29 -1.7 82 82 NNE 8 13 30.15 1021 5 8 N/A
5:53 am 05:53 Cloudy with Haze 34 1.1 29 -1.7 82 82 NNE 7 11 30.14 1021 6 10 N/A
6:23 am 06:23 Cloudy with Haze 33 0.6 28 -2.2 82 82 NE 8 13 30.14 1021 6 10 N/A
6:53 am 06:53 Cloudy with Haze 33 0.6 28 -2.2 82 82 NE 7 11 30.11 1020 6 10 N/A
7:53 am 07:53 Cloudy with Haze 33 0.6 28 -2.2 82 82 NE 7 11 30.09 1019 5 8 N/A
8:53 am 08:53 Cloudy with Haze 34 1.1 28 -2.2 79 79 NNE 6 9 30.10 1019 5 8 N/A
9:53 am 09:53 Cloudy with Haze 34 1.1 29 -1.7 82 82 NNE 8 13 30.09 1019 4 6 N/A
10:08 am 10:08 Cloudy with Light Snow 34 1.1 29 -1.7 82 82 NNE 9 15 30.11 1019 2 3 N/A
10:18 am 10:18 Cloudy with Light Snow 34 1.1 29 -1.7 82 82 NNE 10 17 30.10 1019 1 2 N/A
10:35 am 10:35 Mostly Cloudy with Light Snow 33 0.6 30 -1.1 89 89 NNE 8 13 30.09 1019 1 1 N/A
10:51 am 10:51 Mostly Cloudy with Snow 34 1 30 -1 87 87 NNE 7 11 30.08 1018 1 1 0.01 0.25
10:53 am 10:53 Mostly Cloudy with Snow 33 0.6 30 -1.1 89 89 NNE 6 9 30.06 1018 1 1 0.01 0.25
11:00 am 11:00 Cloudy with Snow 33 0.6 30 -1.1 89 89 NNE 9 15 30.07 1018 1 1 0.01 0.25
11:37 am 11:37 Cloudy with Light Snow 34 1.1 31 -0.6 89 89 NE 6 9 30.04 1017 1 1 0.02 0.51
11:47 am 11:47 Cloudy with Light Snow 34 1 30 -1 87 87 NNE 8 13 30.05 1017 1 2 0.02 0.51
11:53 am 11:53 Cloudy with Light Snow 34 1.1 30 -1.1 85 85 NE 8 13 30.03 1017 1 2 0.02 0.51
12:33 pm 12:33 Cloudy with Light Snow 33 0.6 30 -1.1 89 89 N 8 13 30.05 1017 1 1 0.01 0.25
12:51 pm 12:51 Cloudy with Light Snow 34 1 30 -1 87 87 NNE 8 13 30.03 1017 1 2 0.02 0.51
12:53 pm 12:53 Cloudy with Light Snow 33 0.6 31 -0.6 92 92 N 7 11 30.01 1016 1 2 0.02 0.51
1:08 pm 13:08 Cloudy with Light Snow 33 0.6 30 -1.1 89 89 NNE 10 17 30.01 1016 1 2 0.01 0.25
1:53 pm 13:53 Cloudy with Light Snow 33 0.6 29 -1.7 85 85 NNW 13 20 30.02 1017 1 2 0.01 0.25
2:18 pm 14:18 Cloudy with Light Snow 32 undefined 28 -2.2 85 85 N 13 20 30.04 1017 1 1 N/A
2:48 pm 14:48 Cloudy with Snow 32 undefined 28 -2 87 87 N 6 9 30.03 1017 1 1 N/A
2:53 pm 14:53 Cloudy with Snow 31 -0.6 29 -1.7 92 92 N 10 17 30.01 1016 1 1 N/A
3:47 pm 15:47 Cloudy with Light Snow 30 -1 28 -2 93 93 N 10 17 30.03 1017 1 2 0.02 0.51
3:53 pm 15:53 Cloudy with Light Snow 31 -0.6 28 -2.2 89 89 N 12 19 30.01 1016 1 2 0.02 0.51
4:53 pm 16:53 Cloudy with Light Snow 31 -0.6 27 -2.8 85 85 N 13 20 30.01 1016 1 2 0.01 0.25
5:18 pm 17:18 Cloudy with Light Snow 30 -1.1 26 -3.3 85 85 N 12 19 30.05 1018 4 6 N/A
5:34 pm 17:34 Cloudy with Light Snow 30 -1.1 25 -3.9 82 82 N 17 28 30.05 1018 5 8 N/A
5:53 pm 17:53 Cloudy 30 -1.1 24 -4.4 79 79 N 15 24 30.03 1017 10 16 N/A
6:53 pm 18:53 Cloudy 29 -1.7 24 -4.4 82 82 NNW 13 20 30.05 1018 10 16 N/A
7:53 pm 19:53 Cloudy 29 -1.7 23 -5 78 78 NNW 9 15 30.08 1019 10 16 N/A
8:53 pm 20:53 Cloudy 28 -2.2 21 -6.1 75 75 N 10 17 30.09 1019 10 16 N/A
9:53 pm 21:53 Cloudy 27 -2.8 21 -6.1 78 78 NNW 5 7 30.10 1019 10 16 N/A
10:53 pm 22:53 Cloudy 28 -2.2 22 -5.6 78 78 NW 7 11 30.11 1020 10 16 N/A
11:37 pm 23:37 Cloudy 28 -2.2 21 -6.1 75 75 NW 14 22 30.14 1021 10 16 N/A
11:50 pm 23:50 Cloudy 28 -2 21 -6 74 74 NW 10 17 30.14 1021 10 16 N/A
11:53 pm 23:53 Cloudy 28 -2.2 20 -6.7 72 72 NW 13 20 30.12 1020 10 16 N/A

Powered by AerisWeather